When you browse on this site, cookies collect data to enhance your experience and personalize the content and advertising you see.
Visit our Privacy Policy to learn more. By continuing to use the site, you agree to this use of cookies and data.
  • In Czech Republic
  • List of Countries
  • For 7 days
  • Water Temperature
  • Satellite Maps
  • Weather Map
  • Weather Widgets
  • user-avatar
    Login

    Hourly Weather As-Savira

    Today, 20 March, Wednesday

    Time Temperature Precipitation Wind Pressure Humidity
    00:00 +13°C° 0 mm 6 mps 735 mmHg 67%
    01:00 +12°C° 0 mm 5 mps 735 mmHg 70%
    02:00 +12°C° 0 mm 5 mps 735 mmHg 71%
    03:00 +12°C° 0 mm 5 mps 735 mmHg 72%
    04:00 +10°C° 0 mm 5 mps 735 mmHg 73%
    05:00 +10°C° 0 mm 5 mps 735 mmHg 73%
    06:00 +10°C° 0 mm 5 mps 735 mmHg 74%
    07:00 +9°C° 0 mm 5 mps 735 mmHg 74%
    08:00 +10°C° 0 mm 5 mps 735 mmHg 69%
    09:00 +12°C° 0 mm 5 mps 736 mmHg 64%
    10:00 +13°C° 0 mm 4 mps 736 mmHg 59%
    11:00 +14°C° 0 mm 4 mps 736 mmHg 54%
    12:00 +17°C° 0 mm 4 mps 736 mmHg 48%
    13:00 +18°C° 0 mm 3 mps 736 mmHg 42%
    14:00 +18°C° 0 mm 4 mps 736 mmHg 39%
    15:00 +19°C° 0 mm 4 mps 735 mmHg 36%
    16:00 +19°C° 0 mm 4 mps 735 mmHg 33%
    17:00 +19°C° 0 mm 5 mps 735 mmHg 35%
    18:00 +17°C° 0 mm 5 mps 735 mmHg 37%
    19:00 +17°C° 0 mm 6 mps 735 mmHg 38%
    20:00 +16°C° 0 mm 6 mps 736 mmHg 41%
    21:00 +15°C° 0 mm 6 mps 736 mmHg 44%
    22:00 +14°C° 0 mm 5 mps 737 mmHg 46%
    23:00 +14°C° 0 mm 5 mps 737 mmHg 47%

    Tomorrow, 21 March, Thursday

    Time Temperature Precipitation Wind Pressure Humidity
    00:00 +13°C° 0 mm 4 mps 737 mmHg 48%
    01:00 +13°C° 0 mm 4 mps 737 mmHg 49%
    02:00 +12°C° 0 mm 3 mps 736 mmHg 50%
    03:00 +12°C° 0 mm 3 mps 736 mmHg 51%
    04:00 +12°C° 0 mm 2 mps 735 mmHg 53%
    05:00 +12°C° 0 mm 2 mps 736 mmHg 54%
    06:00 +12°C° 0 mm 2 mps 736 mmHg 54%
    07:00 +11°C° 0 mm 3 mps 736 mmHg 55%
    08:00 +12°C° 0 mm 3 mps 736 mmHg 52%
    09:00 +13°C° 0 mm 4 mps 737 mmHg 48%
    10:00 +14°C° 0 mm 4 mps 737 mmHg 45%
    11:00 +15°C° 0 mm 5 mps 737 mmHg 41%
    12:00 +16°C° 0 mm 5 mps 736 mmHg 37%
    13:00 +17°C° 0 mm 6 mps 736 mmHg 33%
    14:00 +17°C° 0 mm 6 mps 736 mmHg 31%
    15:00 +19°C° 0 mm 6 mps 735 mmHg 28%
    16:00 +19°C° 0 mm 6 mps 734 mmHg 26%
    17:00 +19°C° 0 mm 5 mps 735 mmHg 27%
    18:00 +17°C° 0 mm 5 mps 735 mmHg 27%
    19:00 +18°C° 0 mm 4 mps 735 mmHg 28%
    20:00 +17°C° 0 mm 4 mps 735 mmHg 28%
    21:00 +17°C° 0 mm 4 mps 736 mmHg 29%
    22:00 +16°C° 0 mm 3 mps 736 mmHg 30%
    23:00 +16°C° 0 mm 3 mps 736 mmHg 31%

    Day after tomorrow, 22 March, Friday

    Time Temperature Precipitation Wind Pressure Humidity
    00:00 +14°C° 0 mm 3 mps 736 mmHg 33%
    01:00 +14°C° 0 mm 3 mps 736 mmHg 34%
    02:00 +13°C° 0 mm 3 mps 735 mmHg 38%
    03:00 +13°C° 0 mm 3 mps 735 mmHg 43%
    04:00 +13°C° 0 mm 2 mps 735 mmHg 47%
    05:00 +13°C° 0 mm 2 mps 735 mmHg 49%
    06:00 +13°C° 0 mm 2 mps 736 mmHg 52%
    07:00 +13°C° 0 mm 2 mps 736 mmHg 54%
    08:00 +13°C° 0 mm 3 mps 736 mmHg 54%
    09:00 +14°C° 0 mm 4 mps 736 mmHg 54%
    10:00 +15°C° 0 mm 5 mps 737 mmHg 54%
    11:00 +16°C° 0 mm 5 mps 737 mmHg 49%
    12:00 +17°C° 0 mm 5 mps 736 mmHg 44%
    13:00 +19°C° 0 mm 5 mps 736 mmHg 39%
    14:00 +19°C° 0 mm 5 mps 736 mmHg 36%
    15:00 +20°C° 0 mm 5 mps 736 mmHg 32%
    16:00 +20°C° 0 mm 6 mps 735 mmHg 28%
    17:00 +19°C° 0 mm 5 mps 736 mmHg 30%
    18:00 +19°C° 0 mm 4 mps 736 mmHg 32%
    19:00 +18°C° 0 mm 3 mps 737 mmHg 34%
    20:00 +18°C° 0 mm 3 mps 737 mmHg 36%
    21:00 +17°C° 0 mm 3 mps 738 mmHg 38%
    22:00 +17°C° 0 mm 2 mps 738 mmHg 40%
    23:00 +16°C° 0 mm 2 mps 738 mmHg 42%

    23 March, Saturday

    Time Temperature Precipitation Wind Pressure Humidity
    00:00 +16°C° 0 mm 1 mps 738 mmHg 44%
    01:00 +15°C° 0 mm 1 mps 738 mmHg 46%
    02:00 +15°C° 0 mm 1 mps 738 mmHg 47%
    03:00 +14°C° 0 mm 1 mps 738 mmHg 48%
    04:00 +14°C° 0 mm 1 mps 738 mmHg 49%
    05:00 +14°C° 0 mm 1 mps 738 mmHg 49%
    06:00 +14°C° 0 mm 1 mps 738 mmHg 48%
    07:00 +14°C° 0 mm 2 mps 739 mmHg 48%
    08:00 +15°C° 0 mm 2 mps 739 mmHg 45%
    09:00 +17°C° 0 mm 2 mps 739 mmHg 42%
    10:00 +19°C° 0 mm 1 mps 740 mmHg 38%
    11:00 +19°C° 0 mm 2 mps 739 mmHg 37%
    12:00 +20°C° 0 mm 2 mps 739 mmHg 35%
    13:00 +21°C° 0 mm 2 mps 739 mmHg 33%
    14:00 +21°C° 0 mm 2 mps 739 mmHg 31%
    15:00 +23°C° 0 mm 2 mps 738 mmHg 30%
    16:00 +22°C° 0 mm 3 mps 738 mmHg 28%
    17:00 +22°C° 0 mm 3 mps 738 mmHg 29%
    18:00 +21°C° 0 mm 3 mps 738 mmHg 29%
    19:00 +21°C° 0 mm 3 mps 738 mmHg 30%
    20:00 +20°C° 0 mm 4 mps 739 mmHg 33%
    21:00 +19°C° 0 mm 4 mps 739 mmHg 35%
    22:00 +18°C° 0 mm 4 mps 740 mmHg 38%
    23:00 +18°C° 0 mm 4 mps 739 mmHg 40%

    24 March, Sunday

    Time Temperature Precipitation Wind Pressure Humidity
    00:00 +17°C° 0 mm 4 mps 739 mmHg 42%
    01:00 +16°C° 0 mm 3 mps 739 mmHg 44%
    02:00 +16°C° 0 mm 3 mps 739 mmHg 45%
    03:00 +16°C° 0 mm 3 mps 739 mmHg 45%
    04:00 +14°C° 0 mm 3 mps 738 mmHg 46%
    05:00 +14°C° 0 mm 3 mps 738 mmHg 48%
    06:00 +14°C° 0 mm 3 mps 739 mmHg 50%
    07:00 +14°C° 0 mm 3 mps 739 mmHg 51%
    08:00 +15°C° 0 mm 4 mps 739 mmHg 47%
    09:00 +18°C° 0 mm 4 mps 739 mmHg 43%
    10:00 +19°C° 0 mm 4 mps 739 mmHg 38%
    11:00 +20°C° 0 mm 4 mps 739 mmHg 35%
    12:00 +21°C° 0 mm 4 mps 738 mmHg 32%
    13:00 +22°C° 0 mm 4 mps 738 mmHg 29%
    14:00 +22°C° 0 mm 4 mps 738 mmHg 27%
    15:00 +24°C° 0 mm 3 mps 737 mmHg 26%
    16:00 +24°C° 0 mm 3 mps 737 mmHg 25%
    17:00 +24°C° 0 mm 3 mps 737 mmHg 26%
    18:00 +22°C° 0 mm 4 mps 737 mmHg 27%
    19:00 +22°C° 0 mm 4 mps 737 mmHg 28%
    20:00 +21°C° 0 mm 5 mps 737 mmHg 31%
    21:00 +21°C° 0 mm 7 mps 737 mmHg 34%
    22:00 +20°C° 0 mm 8 mps 736 mmHg 37%
    23:00 +18°C° 0 mm 8 mps 736 mmHg 42%

    25 March, Monday

    Time Temperature Precipitation Wind Pressure Humidity
    00:00 +18°C° 0 mm 7 mps 736 mmHg 46%
    01:00 +17°C° 0 mm 7 mps 736 mmHg 50%
    02:00 +17°C° 0 mm 7 mps 735 mmHg 52%
    03:00 +17°C° 0 mm 7 mps 735 mmHg 53%
    04:00 +17°C° 0 mm 8 mps 735 mmHg 54%
    05:00 +16°C° 0 mm 8 mps 735 mmHg 55%
    06:00 +16°C° 0 mm 8 mps 735 mmHg 57%
    07:00 +16°C° 0 mm 8 mps 735 mmHg 58%
    08:00 +17°C° 0 mm 9 mps 735 mmHg 52%
    09:00 +19°C° 0 mm 9 mps 735 mmHg 45%
    10:00 +21°C° 0 mm 9 mps 736 mmHg 39%
    11:00 +23°C° 0 mm 8 mps 735 mmHg 33%
    12:00 +26°C° 0 mm 7 mps 735 mmHg 28%
    13:00 +28°C° 0 mm 6 mps 735 mmHg 22%
    14:00 +28°C° 0 mm 6 mps 734 mmHg 21%
    15:00 +29°C° 0 mm 6 mps 733 mmHg 20%
    16:00 +29°C° 0 mm 6 mps 733 mmHg 19%
    17:00 +28°C° 0 mm 7 mps 733 mmHg 22%
    18:00 +28°C° 0 mm 7 mps 733 mmHg 24%
    19:00 +27°C° 0 mm 8 mps 733 mmHg 26%
    20:00 +26°C° 0 mm 9 mps 733 mmHg 30%
    21:00 +23°C° 0 mm 9 mps 734 mmHg 34%
    22:00 +22°C° 0 mm 10 mps 734 mmHg 39%
    23:00 +22°C° 0 mm 9 mps 734 mmHg 40%
    Show more